• en France
  • Liste des pays
  • À 7 jours
  • Température de l'eau
  • Carte satellitaire
  • Carte météo
  • Widgets météo
  • user-avatar
    Se connecter

    Météo par heure à San Isidro

    Ce jour, 19 Février, Lundi

    Heure Température Précipitation Vent Pression Humidité
    00:00 +21°C° 0 mm 1 m/s 698 mmHg 82%
    01:00 +21°C° 0 mm 1 m/s 697 mmHg 80%
    02:00 +20°C° 0 mm 1 m/s 697 mmHg 78%
    03:00 +20°C° 0 mm 1 m/s 697 mmHg 76%
    04:00 +20°C° 0 mm 1 m/s 697 mmHg 75%
    05:00 +20°C° 0 mm 1 m/s 697 mmHg 75%
    06:00 +20°C° 0 mm 1 m/s 697 mmHg 74%
    07:00 +23°C° 0 mm 1 m/s 698 mmHg 67%
    08:00 +26°C° 0 mm 1 m/s 699 mmHg 59%
    09:00 +28°C° 0 mm 1 m/s 699 mmHg 52%
    10:00 +29°C° 0 mm 2 m/s 699 mmHg 52%
    11:00 +30°C° 0 mm 2 m/s 699 mmHg 51%
    12:00 +31°C° 0 mm 2 m/s 699 mmHg 50%
    13:00 +30°C° 0 mm 2 m/s 698 mmHg 53%
    14:00 +30°C° 0 mm 2 m/s 698 mmHg 56%
    15:00 +29°C° 0 mm 2 m/s 697 mmHg 59%
    16:00 +27°C° 0,2 mm 2 m/s 697 mmHg 70%
    17:00 +25°C° 0,2 mm 2 m/s 697 mmHg 80%
    18:00 +23°C° 0,2 mm 1 m/s 697 mmHg 90%
    19:00 +22°C° 0,4 mm 1 m/s 697 mmHg 88%
    20:00 +22°C° 0,4 mm 1 m/s 697 mmHg 86%
    21:00 +21°C° 0,4 mm 1 m/s 698 mmHg 83%
    22:00 +21°C° 0,2 mm 1 m/s 698 mmHg 81%
    23:00 +20°C° 0,2 mm 1 m/s 698 mmHg 79%

    Demain, 20 Février, Mardi

    Heure Température Précipitation Vent Pression Humidité
    00:00 +20°C° 0,2 mm 1 m/s 698 mmHg 77%
    01:00 +20°C° 0,1 mm 1 m/s 698 mmHg 78%
    02:00 +20°C° 0,1 mm 1 m/s 697 mmHg 79%
    03:00 +20°C° 0,1 mm 1 m/s 697 mmHg 79%
    04:00 +20°C° 0 mm 1 m/s 697 mmHg 79%
    05:00 +20°C° 0 mm 1 m/s 697 mmHg 78%
    06:00 +20°C° 0 mm 1 m/s 697 mmHg 78%
    07:00 +22°C° 0 mm 1 m/s 698 mmHg 69%
    08:00 +25°C° 0 mm 1 m/s 699 mmHg 60%
    09:00 +28°C° 0 mm 1 m/s 700 mmHg 51%
    10:00 +29°C° 0 mm 2 m/s 700 mmHg 48%
    11:00 +30°C° 0 mm 2 m/s 700 mmHg 46%
    12:00 +32°C° 0 mm 2 m/s 699 mmHg 44%
    13:00 +31°C° 0 mm 2 m/s 699 mmHg 49%
    14:00 +30°C° 0 mm 2 m/s 698 mmHg 55%
    15:00 +29°C° 0 mm 2 m/s 697 mmHg 60%
    16:00 +27°C° 0,3 mm 2 m/s 697 mmHg 71%
    17:00 +25°C° 0,3 mm 1 m/s 697 mmHg 81%
    18:00 +23°C° 0,3 mm 1 m/s 697 mmHg 92%
    19:00 +23°C° 0,3 mm 1 m/s 698 mmHg 90%
    20:00 +22°C° 0,3 mm 1 m/s 698 mmHg 88%
    21:00 +22°C° 0,3 mm 1 m/s 699 mmHg 87%
    22:00 +21°C° 0,1 mm 1 m/s 699 mmHg 86%
    23:00 +21°C° 0,1 mm 1 m/s 699 mmHg 85%

    Après-demain, 21 Février, Mercredi

    Heure Température Précipitation Vent Pression Humidité
    00:00 +21°C° 0,1 mm 1 m/s 698 mmHg 83%
    01:00 +21°C° 0,1 mm 1 m/s 698 mmHg 83%
    02:00 +21°C° 0,1 mm 1 m/s 698 mmHg 83%
    03:00 +21°C° 0,1 mm 1 m/s 697 mmHg 83%
    04:00 +21°C° 0 mm 1 m/s 698 mmHg 83%
    05:00 +21°C° 0 mm 1 m/s 698 mmHg 84%
    06:00 +22°C° 0 mm 1 m/s 698 mmHg 84%
    07:00 +24°C° 0 mm 1 m/s 699 mmHg 78%
    08:00 +26°C° 0 mm 1 m/s 700 mmHg 71%
    09:00 +28°C° 0 mm 1 m/s 700 mmHg 64%
    10:00 +28°C° 0,1 mm 1 m/s 700 mmHg 66%
    11:00 +28°C° 0,1 mm 2 m/s 700 mmHg 67%
    12:00 +28°C° 0,1 mm 2 m/s 699 mmHg 68%
    13:00 +27°C° 0,6 mm 2 m/s 699 mmHg 72%
    14:00 +27°C° 0,6 mm 2 m/s 698 mmHg 75%
    15:00 +26°C° 0,6 mm 2 m/s 697 mmHg 79%
    16:00 +25°C° 0,8 mm 2 m/s 697 mmHg 84%
    17:00 +24°C° 0,8 mm 1 m/s 698 mmHg 88%
    18:00 +23°C° 0,8 mm 1 m/s 698 mmHg 93%
    19:00 +23°C° 0,3 mm 1 m/s 698 mmHg 92%
    20:00 +22°C° 0,3 mm 1 m/s 699 mmHg 91%
    21:00 +22°C° 0,3 mm 1 m/s 699 mmHg 90%
    22:00 +22°C° 0,3 mm 1 m/s 699 mmHg 89%
    23:00 +22°C° 0,3 mm 1 m/s 699 mmHg 88%

    22 Février, Jeudi

    Heure Température Précipitation Vent Pression Humidité
    00:00 +21°C° 0,3 mm 1 m/s 699 mmHg 87%
    01:00 +21°C° 0,1 mm 1 m/s 698 mmHg 87%
    02:00 +21°C° 0,1 mm 1 m/s 698 mmHg 87%
    03:00 +21°C° 0,1 mm 1 m/s 698 mmHg 86%
    04:00 +21°C° 0 mm 1 m/s 698 mmHg 86%
    05:00 +21°C° 0 mm 1 m/s 698 mmHg 85%
    06:00 +21°C° 0 mm 1 m/s 699 mmHg 84%
    07:00 +23°C° 0 mm 1 m/s 699 mmHg 77%
    08:00 +25°C° 0 mm 1 m/s 700 mmHg 70%
    09:00 +28°C° 0 mm 1 m/s 701 mmHg 63%
    10:00 +28°C° 0,1 mm 2 m/s 700 mmHg 62%
    11:00 +28°C° 0,1 mm 2 m/s 700 mmHg 62%
    12:00 +29°C° 0,1 mm 2 m/s 699 mmHg 61%
    13:00 +28°C° 0,4 mm 2 m/s 699 mmHg 65%
    14:00 +27°C° 0,4 mm 2 m/s 698 mmHg 69%
    15:00 +27°C° 0,4 mm 2 m/s 697 mmHg 73%
    16:00 +25°C° 0,4 mm 2 m/s 697 mmHg 78%
    17:00 +24°C° 0,4 mm 1 m/s 697 mmHg 84%
    18:00 +22°C° 0,4 mm 1 m/s 698 mmHg 89%
    19:00 +22°C° 0,1 mm 1 m/s 698 mmHg 87%
    20:00 +21°C° 0,1 mm 1 m/s 698 mmHg 85%
    21:00 +21°C° 0,1 mm 1 m/s 699 mmHg 83%
    22:00 +20°C° 0,2 mm 1 m/s 699 mmHg 82%
    23:00 +20°C° 0,2 mm 1 m/s 698 mmHg 81%

    23 Février, Vendredi

    Heure Température Précipitation Vent Pression Humidité
    00:00 +20°C° 0,2 mm 1 m/s 698 mmHg 80%
    01:00 +20°C° 0 mm 1 m/s 698 mmHg 80%
    02:00 +21°C° 0 mm 1 m/s 697 mmHg 81%
    03:00 +21°C° 0 mm 1 m/s 697 mmHg 81%
    04:00 +21°C° 0,1 mm 1 m/s 698 mmHg 82%
    05:00 +21°C° 0,1 mm 1 m/s 698 mmHg 83%
    06:00 +21°C° 0,1 mm 1 m/s 698 mmHg 84%
    07:00 +23°C° 0 mm 1 m/s 699 mmHg 76%
    08:00 +25°C° 0 mm 1 m/s 700 mmHg 67%
    09:00 +27°C° 0 mm 1 m/s 700 mmHg 58%
    10:00 +29°C° 0 mm 2 m/s 700 mmHg 53%
    11:00 +30°C° 0 mm 2 m/s 700 mmHg 48%
    12:00 +31°C° 0 mm 2 m/s 699 mmHg 43%
    13:00 +30°C° 0,2 mm 2 m/s 698 mmHg 49%
    14:00 +29°C° 0,2 mm 2 m/s 698 mmHg 54%
    15:00 +28°C° 0,2 mm 2 m/s 697 mmHg 60%
    16:00 +26°C° 0,6 mm 2 m/s 697 mmHg 69%
    17:00 +24°C° 0,6 mm 1 m/s 697 mmHg 79%
    18:00 +22°C° 0,6 mm 1 m/s 697 mmHg 89%
    19:00 +22°C° 0,3 mm 1 m/s 697 mmHg 87%
    20:00 +21°C° 0,3 mm 1 m/s 698 mmHg 85%
    21:00 +20°C° 0,3 mm 1 m/s 698 mmHg 83%
    22:00 +20°C° 0,1 mm 1 m/s 698 mmHg 80%
    23:00 +20°C° 0,1 mm 1 m/s 698 mmHg 77%

    24 Février, Samedi

    Heure Température Précipitation Vent Pression Humidité
    00:00 +20°C° 0,1 mm 1 m/s 698 mmHg 75%
    01:00 +19°C° 0 mm 1 m/s 697 mmHg 76%
    02:00 +19°C° 0 mm 1 m/s 697 mmHg 77%
    03:00 +19°C° 0 mm 1 m/s 697 mmHg 77%
    04:00 +19°C° 0 mm 1 m/s 697 mmHg 78%
    05:00 +19°C° 0 mm 1 m/s 697 mmHg 79%
    06:00 +20°C° 0 mm 1 m/s 698 mmHg 80%
    07:00 +22°C° 0 mm 1 m/s 698 mmHg 73%
    08:00 +25°C° 0 mm 1 m/s 699 mmHg 65%
    09:00 +28°C° 0 mm 1 m/s 700 mmHg 58%
    10:00 +28°C° 0,2 mm 1 m/s 699 mmHg 60%
    11:00 +28°C° 0,2 mm 2 m/s 699 mmHg 63%
    12:00 +28°C° 0,2 mm 2 m/s 699 mmHg 66%
    13:00 +27°C° 0,8 mm 2 m/s 698 mmHg 70%
    14:00 +26°C° 0,8 mm 2 m/s 697 mmHg 74%
    15:00 +25°C° 0,8 mm 1 m/s 697 mmHg 79%
    16:00 +24°C° 0,8 mm 1 m/s 697 mmHg 83%
    17:00 +23°C° 0,8 mm 1 m/s 697 mmHg 87%
    18:00 +22°C° 0,8 mm 1 m/s 697 mmHg 92%
    19:00 +22°C° 0,3 mm 1 m/s 698 mmHg 91%
    20:00 +22°C° 0,3 mm 1 m/s 698 mmHg 91%
    21:00 +21°C° 0,3 mm 1 m/s 698 mmHg 91%
    22:00 +21°C° 0,1 mm 1 m/s 698 mmHg 90%
    23:00 +21°C° 0,1 mm 1 m/s 698 mmHg 88%
    Voir plus